Regional Weather Roundup
Issued by NWS

Home | Current Version | Previous Version | Graphics & Text | Print | Product List | Glossary On
Versions: 1 2 3 4 5 6 7 8 9 10 11 12 13 14 15 16 17 18 19 20 21 22 23 24 25 26 27 28 29 30 31 32 33 34 35 36 37 38 39 40 41 42 43 44 45 46 47 48 49 50
000
ASUS43 KFSD 212302
RWRSD

WEATHER ROUNDUP FOR SOUTH DAKOTA
NATIONAL WEATHER SERVICE SIOUX FALLS SD
500 PM CST SUN DEC 21 2014

NOTE: "FAIR" INDICATES FEW OR NO CLOUDS BELOW 12,000 FEET WITH NO
SIGNIFICANT WEATHER AND/OR OBSTRUCTIONS TO VISIBILITY.


SDZ001>005-009-010-012>017-220000-
NORTHWEST AND NORTH CENTRAL SOUTH DAKOTA

CITY           SKY/WX    TMP DP  RH WIND       PRES   REMARKS
BUFFALO          N/A     38  35  89 SW6       29.32R
FAITH            N/A     37  28  70 S3        29.38F
MOBRIDGE       PTCLDY    33  28  81 E13       29.40S WCI  24
$$

SDZ012>016-024>037-041>051-057-063-072>074-220000-
SOUTHWEST AND SOUTH CENTRAL SOUTH DAKOTA

CITY           SKY/WX    TMP DP  RH WIND       PRES   REMARKS
RAPID CTY ARPT CLOUDY    43  26  51 N9        29.40R
PIERRE         MOCLDY    33  28  81 E7        29.40F WCI  27
CUSTER         CLOUDY    39  29  67 VRB5      29.41S
ELLSWORTH AFB  LGT RAIN  43  26  50 N8        29.39S
PHILIP         CLOUDY    41  28  60 NW5       29.39R
PINE RIDGE     MOCLDY    43  29  57 NW9       29.41R
WINNER         FAIR      42  31  64 S20       29.40F
$$

SDZ004>011-016>023-039-040-220000-
NORTHEAST SOUTH DAKOTA

CITY           SKY/WX    TMP DP  RH WIND       PRES   REMARKS
ABERDEEN       CLOUDY    33  30  88 S15       29.51F WCI  23
WATERTOWN      FOG       32  32 100 S14G24    29.52S VSB 1   WCI  22
SISSETON         N/A     33  32  96 S12       29.55S WCI  24
$$

SDZ017-020-022-023-036>040-048>070-220000-
SOUTHEAST SOUTH DAKOTA

CITY           SKY/WX    TMP DP  RH WIND       PRES   REMARKS
SIOUX FALLS    CLOUDY    37  35  92 S17G31    29.58S
HURON          CLEAR     35  32  88 SE12      29.50R WCI  27
MITCHELL       MOCLDY    37  34  89 S18       29.51S FOG
YANKTON        CLOUDY    37  36  93 S21G29    29.58F
$$

ABBREVIATIONS USED IN REMARKS
   TC - TEMPERATURE IN CELSIUS
  WCI - WIND CHILL INDEX
   HX - HEAT INDEX
  VSB - VISIBILITY



USA.gov is the U.S. government's official web portal to all federal, state and local government web resources and services.